QPF
0.09 0.09 0.07 0.06 0.06 0.06 0.06 0.09 0.09 0.05 0.03 0.02 0.02 0.02 0.02 0.01 0.01 0.02 0.03 0.02 0.02 0.03 0.03 0.02 0.02 0.02 0.03 0.03 0.02 0.01 0.01 0.01 0.01 0.01 0.01 0.01 0.00 0.01 0.02 0.01 0.01 0.01 0.01
0.11 0.11 0.10 0.10 0.08 0.07 0.07 0.08 0.12 0.13 0.08 0.04 0.02 0.02 0.02 0.02 0.01 0.02 0.03 0.03 0.02 0.02 0.03 0.02 0.02 0.03 0.04 0.03 0.01 0.01 0.00 0.01 0.01 0.01 0.01 0.01 0.01 0.01 0.01 0.01 0.00 0.00 0.01
0.12 0.12 0.10 0.10 0.11 0.10 0.09 0.08 0.09 0.10 0.13 0.09 0.05 0.03 0.03 0.02 0.02 0.02 0.02 0.02 0.01 0.01 0.02 0.02 0.02 0.03 0.04 0.04 0.03 0.01 0.01 0.01 0.01 0.01 0.01 0.01 0.01 0.01 0.01 0.00 0.00 0.00 0.01
0.13 0.13 0.09 0.07 0.07 0.07 0.08 0.09 0.11 0.10 0.09 0.09 0.08 0.05 0.04 0.03 0.02 0.02 0.02 0.02 0.02 0.01 0.01 0.02 0.02 0.03 0.03 0.03 0.03 0.02 0.01 0.01 0.01 0.00 0.00 0.01 0.01 0.02 0.01 0.01 0.00 0.00 0.01
0.12 0.15 0.14 0.09 0.07 0.05 0.05 0.06 0.08 0.13 0.13 0.10 0.10 0.09 0.06 0.03 0.02 0.01 0.02 0.02 0.02 0.01 0.01 0.01 0.01 0.02 0.03 0.04 0.04 0.03 0.02 0.01 0.01 0.01 0.00 0.01 0.01 0.01 0.02 0.01 0.01 0.01 0.01
0.14 0.15 0.17 0.16 0.11 0.07 0.05 0.04 0.04 0.07 0.11 0.13 0.09 0.07 0.06 0.04 0.02 0.02 0.02 0.02 0.02 0.01 0.01 0.01 0.01 0.01 0.01 0.02 0.04 0.03 0.03 0.02 0.02 0.02 0.01 0.01 0.01 0.01 0.02 0.02 0.02 0.02 0.02
0.11 0.14 0.12 0.16 0.13 0.08 0.05 0.04 0.04 0.06 0.07 0.08 0.09 0.07 0.05 0.03 0.03 0.02 0.02 0.02 0.02 0.02 0.01 0.00 0.00 0.01 0.01 0.01 0.02 0.03 0.03 0.04 0.04 0.03 0.02 0.02 0.01 0.01 0.02 0.02 0.02 0.02 0.02
0.11 0.14 0.12 0.12 0.14 0.10 0.07 0.04 0.03 0.05 0.07 0.07 0.06 0.05 0.04 0.03 0.02 0.03 0.03 0.03 0.03 0.02 0.01 0.00 0.00 0.01 0.01 0.01 0.01 0.01 0.01 0.02 0.03 0.03 0.02 0.02 0.02 0.01 0.01 0.02 0.01 0.01 0.01
0.10 0.14 0.14 0.11 0.12 0.11 0.10 0.07 0.04 0.04 0.05 0.07 0.07 0.05 0.03 0.02 0.02 0.03 0.03 0.03 0.03 0.03 0.02 0.01 0.01 0.01 0.01 0.01 0.01 0.01 0.01 0.01 0.02 0.02 0.02 0.02 0.03 0.03 0.02 0.02 0.02 0.01 0.00
0.13 0.16 0.17 0.13 0.10 0.09 0.09 0.10 0.08 0.07 0.06 0.06 0.08 0.07 0.05 0.03 0.03 0.03 0.02 0.03 0.03 0.03 0.03 0.01 0.01 0.01 0.01 0.01 0.01 0.01 0.01 0.01 0.01 0.01 0.01 0.02 0.02 0.03 0.03 0.03 0.02 0.02 0.01
0.12 0.16 0.19 0.18 0.14 0.10 0.08 0.08 0.09 0.10 0.11 0.11 0.11 0.11 0.09 0.06 0.03 0.02 0.02 0.02 0.03 0.03 0.03 0.01 0.00 0.01 0.01 0.01 0.01 0.00 0.00 0.01 0.01 0.01 0.02 0.02 0.02 0.02 0.03 0.03 0.03 0.02 0.01
0.09 0.14 0.16 0.17 0.15 0.11 0.09 0.08 0.08 0.08 0.08 0.10 0.12 0.14 0.14 0.12 0.07 0.04 0.03 0.02 0.03 0.03 0.03 0.02 0.01 0.00 0.01 0.01 0.01 0.01 0.01 0.00 0.01 0.01 0.02 0.02 0.01 0.02 0.02 0.03 0.03 0.02 0.01
0.06 0.11 0.16 0.17 0.14 0.11 0.08 0.08 0.09 0.09 0.08 0.08 0.08 0.09 0.10 0.11 0.10 0.07 0.04 0.03 0.03 0.04 0.04 0.04 0.02 0.01 0.00 0.01 0.01 0.01 0.01 0.01 0.01 0.01 0.01 0.02 0.02 0.02 0.02 0.02 0.03 0.03 0.02
0.04 0.07 0.14 0.18 0.16 0.11 0.08 0.07 0.07 0.09 0.09 0.08 0.07 0.07 0.08 0.08 0.08 0.08 0.07 0.06 0.05 0.04 0.04 0.04 0.03 0.01 0.01 0.01 0.01 0.01 0.01 0.01 0.01 0.01 0.01 0.02 0.02 0.02 0.02 0.02 0.02 0.02 0.02
0.05 0.05 0.09 0.16 0.17 0.14 0.09 0.07 0.07 0.07 0.07 0.06 0.06 0.05 0.06 0.06 0.07 0.07 0.08 0.08 0.07 0.06 0.05 0.04 0.03 0.01 0.01 0.01 0.01 0.01 0.01 0.01 0.01 0.01 0.01 0.01 0.01 0.02 0.02 0.02 0.02 0.02 0.02
0.07 0.07 0.08 0.12 0.16 0.14 0.10 0.07 0.06 0.06 0.05 0.04 0.04 0.03 0.03 0.04 0.05 0.06 0.06 0.07 0.07 0.06 0.05 0.05 0.04 0.02 0.01 0.01 0.01 0.01 0.01 0.01 0.01 0.01 0.01 0.01 0.01 0.01 0.02 0.02 0.02 0.02 0.02
0.06 0.07 0.09 0.12 0.15 0.13 0.11 0.07 0.05 0.04 0.04 0.05 0.04 0.03 0.03 0.03 0.04 0.05 0.05 0.05 0.06 0.06 0.05 0.04 0.04 0.03 0.02 0.01 0.02 0.01 0.01 0.01 0.01 0.01 0.01 0.01 0.01 0.01 0.02 0.02 0.03 0.03 0.03
0.06 0.07 0.08 0.12 0.15 0.15 0.11 0.09 0.06 0.04 0.03 0.03 0.03 0.04 0.04 0.03 0.02 0.04 0.05 0.05 0.05 0.05 0.05 0.04 0.04 0.03 0.02 0.01 0.02 0.02 0.02 0.02 0.02 0.02 0.02 0.01 0.02 0.02 0.02 0.03 0.04 0.04 0.04
0.07 0.08 0.09 0.11 0.13 0.15 0.11 0.08 0.06 0.04 0.04 0.03 0.02 0.02 0.03 0.04 0.03 0.03 0.04 0.05 0.05 0.05 0.06 0.06 0.05 0.04 0.03 0.02 0.02 0.02 0.02 0.02 0.02 0.02 0.02 0.02 0.01 0.02 0.02 0.03 0.04 0.04 0.03
0.07 0.08 0.09 0.10 0.10 0.14 0.14 0.10 0.07 0.05 0.04 0.04 0.04 0.03 0.03 0.03 0.03 0.02 0.03 0.04 0.04 0.05 0.06 0.07 0.07 0.06 0.05 0.03 0.03 0.03 0.02 0.02 0.02 0.02 0.01 0.01 0.01 0.01 0.02 0.02 0.02 0.02 0.02
0.08 0.08 0.10 0.11 0.10 0.10 0.13 0.12 0.09 0.07 0.05 0.04 0.04 0.03 0.02 0.02 0.02 0.02 0.02 0.03 0.04 0.04 0.05 0.05 0.05 0.05 0.05 0.04 0.03 0.03 0.03 0.03 0.02 0.02 0.01 0.01 0.01 0.01 0.01 0.01 0.01 0.01 0.01
0.10 0.08 0.10 0.11 0.09 0.07 0.09 0.10 0.09 0.07 0.06 0.04 0.03 0.03 0.02 0.02 0.02 0.02 0.02 0.02 0.03 0.03 0.04 0.04 0.04 0.04 0.03 0.02 0.02 0.02 0.02 0.03 0.04 0.03 0.02 0.01 0.01 0.01 0.01 0.01 0.01 0.01 0.01
0.12 0.09 0.09 0.10 0.07 0.06 0.06 0.06 0.07 0.07 0.05 0.03 0.02 0.02 0.01 0.01 0.01 0.01 0.02 0.02 0.02 0.02 0.02 0.02 0.03 0.02 0.02 0.01 0.01 0.02 0.02 0.02 0.03 0.04 0.03 0.02 0.02 0.01 0.01 0.01 0.01 0.01 0.01
0.16 0.13 0.09 0.08 0.06 0.05 0.05 0.06 0.06 0.05 0.04 0.03 0.02 0.01 0.01 0.01 0.01 0.01 0.01 0.02 0.02 0.02 0.02 0.02 0.02 0.02 0.01 0.02 0.02 0.02 0.02 0.02 0.02 0.04 0.05 0.05 0.03 0.01 0.01 0.01 0.01 0.01 0.01
0.19 0.18 0.15 0.10 0.07 0.06 0.05 0.05 0.06 0.05 0.04 0.03 0.02 0.01 0.01 0.01 0.01 0.01 0.01 0.02 0.02 0.02 0.01 0.01 0.01 0.01 0.02 0.03 0.03 0.04 0.03 0.03 0.03 0.04 0.04 0.05 0.04 0.02 0.01 0.01 0.01 0.01 0.01
0.16 0.16 0.15 0.13 0.09 0.05 0.04 0.04 0.05 0.06 0.05 0.03 0.02 0.02 0.02 0.02 0.02 0.02 0.02 0.02 0.02 0.02 0.02 0.01 0.01 0.02 0.02 0.03 0.03 0.03 0.03 0.03 0.02 0.03 0.03 0.03 0.04 0.04 0.03 0.02 0.01 0.01 0.01
MSLP
1019.69 1019.60 1019.51 1019.42 1019.38 1019.36 1019.39 1019.45 1019.53 1019.60 1019.66 1019.69 1019.70 1019.69 1019.70 1019.73 1019.81 1019.93 1020.10 1020.29 1020.48 1020.64 1020.77 1020.84 1020.86 1020.84 1020.79 1020.73 1020.69 1020.66 1020.65 1020.65 1020.68 1020.71 1020.77 1020.84 1020.92 1021.02 1021.13 1021.25 1021.35 1021.44 1021.51
1020.02 1019.89 1019.75 1019.62 1019.54 1019.50 1019.51 1019.56 1019.64 1019.72 1019.79 1019.83 1019.85 1019.84 1019.84 1019.85 1019.90 1019.98 1020.11 1020.26 1020.42 1020.57 1020.68 1020.75 1020.77 1020.75 1020.70 1020.63 1020.57 1020.51 1020.47 1020.45 1020.45 1020.48 1020.54 1020.62 1020.73 1020.87 1021.01 1021.15 1021.29 1021.41 1021.50
1020.35 1020.19 1020.02 1019.87 1019.76 1019.70 1019.71 1019.76 1019.85 1019.94 1020.02 1020.06 1020.08 1020.06 1020.03 1020.01 1020.01 1020.04 1020.12 1020.22 1020.34 1020.45 1020.55 1020.62 1020.65 1020.64 1020.60 1020.53 1020.46 1020.39 1020.33 1020.28 1020.26 1020.28 1020.33 1020.41 1020.53 1020.68 1020.84 1021.01 1021.16 1021.30 1021.42
1020.65 1020.48 1020.30 1020.14 1020.03 1019.97 1019.98 1020.04 1020.13 1020.23 1020.31 1020.36 1020.36 1020.33 1020.27 1020.20 1020.15 1020.12 1020.14 1020.19 1020.26 1020.36 1020.45 1020.52 1020.57 1020.58 1020.56 1020.50 1020.43 1020.35 1020.27 1020.21 1020.16 1020.15 1020.18 1020.26 1020.37 1020.50 1020.66 1020.83 1020.99 1021.13 1021.26
1020.90 1020.75 1020.58 1020.44 1020.34 1020.29 1020.31 1020.38 1020.47 1020.57 1020.64 1020.68 1020.67 1020.61 1020.52 1020.42 1020.32 1020.24 1020.21 1020.22 1020.26 1020.34 1020.42 1020.51 1020.58 1020.62 1020.63 1020.60 1020.54 1020.46 1020.36 1020.27 1020.20 1020.16 1020.15 1020.19 1020.26 1020.38 1020.51 1020.66 1020.80 1020.93 1021.05
1021.10 1020.97 1020.85 1020.74 1020.67 1020.65 1020.67 1020.74 1020.83 1020.92 1020.98 1021.01 1020.98 1020.90 1020.79 1020.65 1020.52 1020.42 1020.35 1020.34 1020.37 1020.44 1020.54 1020.65 1020.75 1020.82 1020.86 1020.86 1020.81 1020.73 1020.63 1020.51 1020.40 1020.31 1020.26 1020.25 1020.27 1020.34 1020.42 1020.53 1020.64 1020.74 1020.84
1021.25 1021.17 1021.09 1021.03 1021.00 1021.01 1021.05 1021.12 1021.20 1021.26 1021.31 1021.31 1021.27 1021.18 1021.06 1020.92 1020.78 1020.67 1020.60 1020.58 1020.61 1020.70 1020.82 1020.95 1021.09 1021.20 1021.27 1021.29 1021.26 1021.18 1021.06 1020.92 1020.77 1020.63 1020.52 1020.45 1020.41 1020.41 1020.44 1020.49 1020.54 1020.61 1020.67
1021.37 1021.35 1021.33 1021.32 1021.34 1021.37 1021.42 1021.48 1021.54 1021.59 1021.61 1021.60 1021.55 1021.46 1021.35 1021.22 1021.11 1021.02 1020.96 1020.96 1021.01 1021.12 1021.26 1021.42 1021.58 1021.73 1021.83 1021.87 1021.86 1021.78 1021.65 1021.48 1021.29 1021.10 1020.93 1020.79 1020.69 1020.62 1020.58 1020.57 1020.57 1020.58 1020.59
1021.46 1021.51 1021.55 1021.60 1021.65 1021.71 1021.77 1021.82 1021.86 1021.89 1021.90 1021.88 1021.83 1021.77 1021.68 1021.60 1021.52 1021.46 1021.44 1021.47 1021.55 1021.67 1021.83 1022.02 1022.20 1022.37 1022.49 1022.55 1022.54 1022.47 1022.33 1022.14 1021.91 1021.68 1021.46 1021.26 1021.09 1020.96 1020.86 1020.78 1020.73 1020.69 1020.66
1021.55 1021.65 1021.75 1021.84 1021.93 1022.01 1022.07 1022.12 1022.15 1022.17 1022.17 1022.16 1022.14 1022.11 1022.07 1022.04 1022.01 1022.00 1022.02 1022.08 1022.18 1022.32 1022.49 1022.68 1022.87 1023.04 1023.17 1023.24 1023.24 1023.16 1023.01 1022.81 1022.57 1022.31 1022.05 1021.81 1021.59 1021.41 1021.26 1021.14 1021.03 1020.95 1020.87
1021.61 1021.75 1021.90 1022.03 1022.15 1022.25 1022.32 1022.37 1022.41 1022.43 1022.45 1022.46 1022.48 1022.50 1022.52 1022.54 1022.57 1022.61 1022.66 1022.74 1022.85 1022.99 1023.16 1023.34 1023.52 1023.68 1023.81 1023.87 1023.87 1023.79 1023.64 1023.43 1023.18 1022.91 1022.63 1022.37 1022.13 1021.92 1021.74 1021.58 1021.45 1021.32 1021.21
1021.62 1021.80 1021.98 1022.14 1022.29 1022.41 1022.49 1022.56 1022.61 1022.66 1022.70 1022.76 1022.83 1022.90 1022.98 1023.07 1023.15 1023.22 1023.30 1023.40 1023.50 1023.63 1023.77 1023.93 1024.09 1024.23 1024.33 1024.38 1024.37 1024.29 1024.14 1023.94 1023.70 1023.43 1023.16 1022.90 1022.65 1022.43 1022.24 1022.07 1021.91 1021.76 1021.62
1021.55 1021.76 1021.97 1022.16 1022.33 1022.46 1022.58 1022.67 1022.75 1022.83 1022.93 1023.04 1023.16 1023.30 1023.44 1023.58 1023.70 1023.80 1023.90 1023.99 1024.08 1024.18 1024.29 1024.41 1024.54 1024.64 1024.72 1024.75 1024.73 1024.65 1024.50 1024.31 1024.07 1023.82 1023.57 1023.32 1023.10 1022.89 1022.70 1022.52 1022.36 1022.19 1022.03
1021.39 1021.62 1021.85 1022.06 1022.25 1022.41 1022.56 1022.68 1022.81 1022.94 1023.09 1023.26 1023.44 1023.64 1023.83 1024.01 1024.16 1024.29 1024.39 1024.47 1024.54 1024.61 1024.69 1024.77 1024.86 1024.93 1024.97 1024.98 1024.94 1024.85 1024.71 1024.52 1024.31 1024.08 1023.85 1023.63 1023.42 1023.24 1023.06 1022.89 1022.72 1022.54 1022.36
1021.11 1021.36 1021.62 1021.85 1022.07 1022.26 1022.44 1022.61 1022.78 1022.96 1023.16 1023.39 1023.63 1023.88 1024.11 1024.32 1024.50 1024.64 1024.74 1024.81 1024.86 1024.91 1024.96 1025.01 1025.06 1025.10 1025.12 1025.11 1025.05 1024.94 1024.80 1024.62 1024.42 1024.20 1024.00 1023.80 1023.62 1023.45 1023.29 1023.13 1022.96 1022.77 1022.57
1020.72 1021.01 1021.29 1021.55 1021.80 1022.02 1022.24 1022.45 1022.66 1022.89 1023.14 1023.41 1023.70 1023.98 1024.25 1024.48 1024.68 1024.82 1024.93 1025.00 1025.05 1025.08 1025.12 1025.15 1025.18 1025.20 1025.20 1025.16 1025.09 1024.97 1024.81 1024.63 1024.43 1024.23 1024.04 1023.86 1023.70 1023.54 1023.39 1023.23 1023.05 1022.85 1022.63
1020.24 1020.56 1020.87 1021.17 1021.45 1021.71 1021.96 1022.21 1022.46 1022.73 1023.02 1023.33 1023.64 1023.94 1024.22 1024.47 1024.68 1024.84 1024.95 1025.03 1025.09 1025.14 1025.18 1025.21 1025.24 1025.25 1025.24 1025.19 1025.10 1024.96 1024.79 1024.60 1024.39 1024.19 1024.00 1023.83 1023.67 1023.51 1023.36 1023.19 1023.00 1022.79 1022.55
1019.67 1020.03 1020.38 1020.71 1021.03 1021.34 1021.62 1021.91 1022.20 1022.49 1022.80 1023.12 1023.44 1023.76 1024.05 1024.30 1024.52 1024.69 1024.82 1024.93 1025.01 1025.08 1025.14 1025.20 1025.24 1025.26 1025.25 1025.20 1025.09 1024.95 1024.76 1024.55 1024.34 1024.12 1023.92 1023.74 1023.57 1023.41 1023.24 1023.06 1022.85 1022.61 1022.35
1019.02 1019.41 1019.81 1020.19 1020.55 1020.89 1021.22 1021.53 1021.85 1022.16 1022.48 1022.81 1023.13 1023.44 1023.73 1023.99 1024.22 1024.41 1024.56 1024.69 1024.81 1024.92 1025.02 1025.10 1025.18 1025.21 1025.21 1025.17 1025.06 1024.91 1024.71 1024.49 1024.26 1024.03 1023.81 1023.61 1023.42 1023.24 1023.05 1022.85 1022.62 1022.36 1022.08
1018.25 1018.69 1019.13 1019.56 1019.97 1020.36 1020.72 1021.07 1021.40 1021.73 1022.05 1022.38 1022.70 1023.01 1023.29 1023.56 1023.79 1023.99 1024.17 1024.33 1024.49 1024.63 1024.77 1024.90 1025.00 1025.07 1025.09 1025.06 1024.96 1024.81 1024.62 1024.39 1024.14 1023.90 1023.66 1023.44 1023.23 1023.03 1022.82 1022.59 1022.34 1022.06 1021.76
1017.35 1017.83 1018.33 1018.81 1019.27 1019.70 1020.10 1020.48 1020.83 1021.17 1021.51 1021.84 1022.15 1022.46 1022.74 1023.01 1023.25 1023.47 1023.67 1023.85 1024.04 1024.21 1024.39 1024.55 1024.68 1024.78 1024.83 1024.82 1024.75 1024.61 1024.42 1024.20 1023.95 1023.70 1023.45 1023.21 1022.98 1022.76 1022.52 1022.28 1022.01 1021.71 1021.39
1016.30 1016.83 1017.37 1017.90 1018.41 1018.89 1019.34 1019.75 1020.13 1020.49 1020.84 1021.18 1021.50 1021.81 1022.10 1022.37 1022.62 1022.84 1023.06 1023.26 1023.46 1023.66 1023.85 1024.03 1024.19 1024.32 1024.39 1024.41 1024.37 1024.26 1024.09 1023.88 1023.65 1023.39 1023.14 1022.89 1022.64 1022.40 1022.15 1021.89 1021.60 1021.30 1020.97
1015.13 1015.70 1016.29 1016.86 1017.42 1017.94 1018.43 1018.88 1019.29 1019.69 1020.06 1020.41 1020.75 1021.07 1021.38 1021.65 1021.91 1022.14 1022.36 1022.57 1022.77 1022.97 1023.17 1023.36 1023.53 1023.68 1023.78 1023.82 1023.81 1023.73 1023.59 1023.41 1023.19 1022.95 1022.70 1022.44 1022.19 1021.93 1021.67 1021.39 1021.11 1020.80 1020.48
1013.89 1014.49 1015.11 1015.73 1016.33 1016.89 1017.42 1017.90 1018.36 1018.78 1019.19 1019.57 1019.94 1020.28 1020.60 1020.90 1021.16 1021.40 1021.61 1021.82 1022.01 1022.19 1022.38 1022.56 1022.73 1022.88 1022.99 1023.06 1023.08 1023.03 1022.93 1022.78 1022.58 1022.35 1022.11 1021.85 1021.59 1021.32 1021.05 1020.78 1020.49 1020.18 1019.87
1012.66 1013.29 1013.94 1014.59 1015.22 1015.82 1016.38 1016.90 1017.39 1017.85 1018.29 1018.71 1019.11 1019.48 1019.83 1020.14 1020.41 1020.66 1020.86 1021.05 1021.22 1021.38 1021.54 1021.70 1021.86 1022.00 1022.12 1022.20 1022.24 1022.22 1022.14 1022.02 1021.84 1021.63 1021.38 1021.12 1020.85 1020.58 1020.30 1020.02 1019.73 1019.44 1019.14
1011.56 1012.21 1012.89 1013.56 1014.21 1014.83 1015.41 1015.96 1016.47 1016.96 1017.43 1017.89 1018.32 1018.73 1019.10 1019.43 1019.72 1019.96 1020.16 1020.32 1020.47 1020.60 1020.73 1020.86 1020.99 1021.12 1021.23 1021.31 1021.36 1021.35 1021.30 1021.18 1021.02 1020.81 1020.56 1020.29 1020.01 1019.72 1019.44 1019.15 1018.86 1018.58 1018.29
Thickness
5649 5651 5652 5653 5654 5655 5655 5655 5656 5657 5658 5658 5658 5658 5658 5658 5658 5657 5656 5656 5657 5657 5657 5657 5656 5656 5655 5654 5653 5653 5652 5651 5650 5648 5647 5645 5644 5642 5641 5640 5638 5637 5635
5643 5645 5646 5647 5648 5649 5650 5650 5651 5652 5652 5652 5652 5652 5652 5652 5653 5652 5652 5652 5652 5652 5652 5652 5652 5652 5651 5651 5650 5649 5648 5647 5646 5644 5643 5641 5640 5639 5637 5636 5634 5633 5631
5636 5638 5639 5640 5641 5643 5644 5644 5645 5645 5646 5646 5646 5646 5646 5646 5647 5647 5647 5647 5647 5647 5647 5648 5648 5648 5647 5647 5646 5645 5644 5643 5642 5641 5639 5638 5636 5635 5634 5632 5630 5628 5627
5628 5631 5632 5634 5635 5637 5637 5638 5638 5638 5638 5638 5638 5638 5639 5640 5640 5641 5642 5642 5642 5642 5642 5643 5643 5643 5643 5643 5642 5641 5640 5639 5638 5637 5635 5634 5633 5631 5630 5628 5626 5625 5623
5619 5623 5625 5626 5628 5630 5630 5631 5631 5631 5630 5630 5630 5631 5631 5632 5633 5635 5636 5637 5637 5638 5638 5638 5638 5638 5638 5638 5638 5637 5636 5635 5634 5633 5632 5630 5629 5627 5626 5624 5622 5620 5619
5609 5613 5616 5618 5620 5622 5623 5623 5623 5623 5622 5622 5622 5622 5622 5624 5626 5628 5629 5631 5631 5632 5633 5633 5633 5633 5633 5633 5633 5633 5632 5631 5630 5629 5628 5627 5625 5623 5622 5620 5618 5616 5614
5600 5604 5608 5610 5612 5615 5616 5616 5616 5614 5613 5614 5612 5611 5612 5615 5618 5620 5622 5624 5625 5626 5627 5628 5628 5628 5628 5628 5628 5628 5627 5627 5626 5625 5623 5622 5621 5619 5617 5616 5614 5612 5610
5591 5595 5599 5602 5604 5606 5607 5607 5608 5606 5605 5607 5606 5604 5602 5604 5608 5612 5614 5616 5617 5619 5621 5622 5623 5623 5623 5623 5623 5623 5622 5622 5622 5621 5619 5618 5616 5615 5613 5611 5609 5607 5605
5582 5585 5589 5594 5596 5598 5599 5600 5600 5600 5599 5599 5601 5600 5598 5599 5599 5602 5605 5608 5610 5612 5614 5615 5617 5617 5618 5618 5617 5617 5617 5617 5616 5616 5615 5613 5611 5610 5608 5607 5604 5602 5600
5572 5575 5579 5584 5587 5590 5591 5592 5593 5593 5593 5592 5593 5595 5597 5597 5594 5593 5596 5600 5602 5604 5606 5609 5610 5611 5611 5611 5612 5611 5611 5611 5611 5610 5609 5608 5607 5605 5603 5601 5599 5597 5595
5561 5566 5569 5574 5578 5581 5583 5584 5584 5585 5585 5586 5586 5587 5589 5590 5591 5589 5588 5590 5593 5596 5599 5602 5603 5604 5605 5605 5605 5605 5605 5605 5605 5604 5604 5602 5601 5600 5598 5596 5594 5592 5589
5551 5556 5560 5564 5568 5571 5573 5575 5576 5577 5578 5578 5579 5580 5581 5583 5584 5585 5583 5583 5584 5588 5591 5594 5596 5597 5598 5599 5599 5599 5599 5599 5598 5598 5597 5596 5595 5594 5592 5590 5588 5585 5583
5540 5546 5550 5554 5558 5561 5564 5566 5567 5568 5569 5570 5571 5572 5574 5576 5577 5580 5578 5576 5577 5579 5582 5586 5589 5590 5591 5592 5592 5592 5592 5591 5591 5591 5590 5590 5588 5587 5585 5583 5581 5579 5577
5530 5536 5541 5544 5549 5552 5554 5557 5559 5560 5561 5562 5563 5565 5566 5568 5570 5571 5572 5571 5569 5570 5574 5577 5580 5583 5584 5585 5585 5585 5585 5584 5584 5584 5583 5583 5581 5580 5578 5576 5574 5572 5569
5520 5526 5531 5535 5539 5543 5546 5547 5549 5551 5552 5554 5555 5556 5558 5560 5561 5563 5564 5566 5565 5564 5566 5569 5571 5574 5576 5577 5577 5577 5577 5577 5577 5576 5576 5575 5574 5572 5570 5568 5566 5564 5562
5510 5515 5521 5526 5530 5533 5537 5538 5540 5542 5543 5545 5546 5547 5549 5551 5552 5554 5556 5558 5560 5560 5560 5562 5562 5565 5567 5568 5568 5569 5569 5568 5568 5568 5568 5567 5566 5564 5562 5560 5558 5555 5553
5500 5506 5512 5516 5521 5524 5527 5529 5531 5532 5534 5536 5538 5539 5541 5543 5543 5545 5547 5549 5551 5553 5552 5553 5554 5555 5557 5558 5558 5559 5559 5559 5559 5559 5559 5558 5557 5556 5554 5552 5549 5547 5544
5490 5497 5502 5506 5511 5515 5519 5520 5522 5524 5526 5527 5529 5530 5531 5533 5534 5535 5537 5540 5542 5543 5543 5543 5544 5545 5547 5549 5549 5549 5550 5550 5550 5550 5550 5549 5548 5546 5544 5542 5540 5538 5535
5481 5487 5492 5497 5501 5505 5508 5511 5513 5515 5517 5519 5520 5521 5522 5523 5524 5526 5528 5530 5532 5534 5534 5534 5535 5535 5537 5538 5539 5539 5540 5540 5541 5541 5540 5540 5538 5536 5535 5533 5530 5528 5525
5472 5477 5483 5488 5491 5496 5499 5502 5503 5505 5507 5508 5510 5511 5513 5514 5515 5516 5518 5520 5521 5522 5524 5524 5525 5524 5526 5528 5528 5528 5529 5530 5531 5531 5530 5529 5528 5526 5525 5523 5521 5518 5516
5462 5468 5473 5477 5481 5485 5489 5491 5492 5494 5496 5497 5498 5501 5502 5504 5506 5507 5509 5510 5511 5511 5512 5513 5514 5514 5515 5516 5518 5519 5518 5518 5519 5520 5520 5520 5518 5517 5514 5512 5510 5508 5506
5452 5457 5463 5466 5470 5475 5479 5481 5482 5484 5485 5486 5488 5489 5491 5493 5494 5497 5499 5501 5503 5503 5503 5504 5505 5506 5507 5509 5509 5509 5508 5507 5508 5510 5508 5508 5507 5506 5504 5503 5501 5499 5497
5442 5447 5452 5455 5459 5463 5467 5469 5470 5473 5474 5476 5478 5479 5480 5482 5483 5485 5487 5490 5492 5493 5495 5497 5497 5498 5499 5501 5500 5499 5498 5497 5497 5498 5496 5497 5496 5495 5494 5493 5491 5489 5487
5433 5437 5441 5444 5448 5453 5456 5458 5460 5461 5462 5465 5467 5469 5470 5471 5473 5475 5476 5478 5480 5482 5484 5487 5490 5490 5490 5491 5490 5490 5488 5485 5485 5485 5484 5484 5485 5484 5484 5483 5481 5479 5476
5424 5427 5431 5435 5439 5443 5446 5448 5448 5449 5451 5454 5456 5458 5460 5461 5463 5465 5466 5468 5469 5471 5473 5476 5479 5479 5480 5480 5479 5477 5474 5473 5473 5473 5473 5472 5472 5472 5472 5472 5470 5467 5464
5415 5419 5423 5426 5429 5433 5436 5438 5438 5440 5441 5443 5445 5447 5450 5452 5453 5454 5456 5458 5459 5461 5462 5464 5466 5467 5468 5469 5468 5467 5465 5463 5461 5461 5462 5459 5458 5456 5458 5460 5458 5455 5453